| time (UTC) | temp C | wind direction | speed KPH | gust KPH | rain 1hr cm | rain 24hr cm | rain mn cm | humidity % | barometer mb |
| 20260504024404 | 14 | 0 | 0.0 | 0.0 | 0.00 | 0.00 | 0.00 | 84 | 1013.0 |
| 20260504023904 | 15 | 0 | 0.0 | 0.0 | 0.00 | 0.00 | 0.00 | 84 | 1012.9 |
| 20260504023404 | 15 | 0 | 0.0 | 0.0 | 0.00 | 0.00 | 0.00 | 84 | 1012.9 |
| 20260504021404 | 15 | 279 | 0.0 | 0.0 | 0.00 | 0.00 | 0.00 | 84 | 1012.9 |
| 20260504020404 | 15 | 264 | 0.0 | 1.6 | 0.00 | 0.00 | 0.00 | 84 | 1012.9 |
| 20260504014405 | 15 | 250 | 0.0 | 0.0 | 0.00 | 0.00 | 0.00 | 84 | 1012.9 |
| 20260504013404 | 15 | 186 | 0.0 | 0.0 | 0.00 | 0.00 | 0.00 | 84 | 1013.1 |
| 20260504011904 | 14 | 183 | 0.0 | 0.0 | 0.00 | 0.00 | 0.00 | 83 | 1013.1 |
| 20260504011404 | 14 | 183 | 0.0 | 0.0 | 0.00 | 0.00 | 0.00 | 83 | 1013.1 |
| 20260504010905 | 14 | 183 | 0.0 | 0.0 | 0.00 | 0.00 | 0.00 | 83 | 1013.1 |
| 20260504010404 | 15 | 183 | 0.0 | 0.0 | 0.00 | 0.00 | 0.00 | 83 | 1013.1 |
| 20260504004904 | 15 | 183 | 0.0 | 0.0 | 0.00 | 0.00 | 0.00 | 82 | 1013.2 |
| 20260504004404 | 15 | 183 | 0.0 | 0.0 | 0.00 | 0.00 | 0.00 | 82 | 1013.2 |
| 20260504003904 | 15 | 183 | 0.0 | 0.0 | 0.00 | 0.00 | 0.00 | 82 | 1013.2 |
| 20260504003404 | 15 | 183 | 0.0 | 4.8 | 0.00 | 0.00 | 0.00 | 82 | 1013.3 |
| 20260504001904 | 15 | 187 | 0.0 | 0.0 | 0.00 | 0.00 | 0.00 | 82 | 1013.5 |
| 20260504001405 | 15 | 188 | 0.0 | 3.2 | 0.00 | 0.00 | 0.00 | 82 | 1013.5 |
| 20260504000904 | 15 | 192 | 0.0 | 4.8 | 0.00 | 0.00 | 0.00 | 82 | 1013.5 |
| 20260504000404 | 15 | 178 | 0.0 | 0.0 | 0.00 | 0.00 | 0.00 | 82 | 1013.6 |
| 20260503234905 | 15 | 185 | 0.0 | 3.2 | 0.00 | 0.00 | 0.00 | 81 | 1013.6 |
| 20260503234404 | 15 | 196 | 0.0 | 4.8 | 0.00 | 0.00 | 0.00 | 81 | 1013.7 |
| 20260503233904 | 15 | 205 | 0.0 | 3.2 | 0.00 | 0.00 | 0.00 | 81 | 1013.6 |
| 20260503233404 | 15 | 179 | 0.0 | 4.8 | 0.00 | 0.00 | 0.00 | 81 | 1013.7 |
| 20260503231405 | 15 | 187 | 0.0 | 0.0 | 0.00 | 0.00 | 0.00 | 81 | 1013.7 |
| 20260503230405 | 15 | 188 | 0.0 | 0.0 | 0.00 | 0.00 | 0.00 | 80 | 1013.7 |
| 20260503224904 | 15 | 182 | 0.0 | 0.0 | 0.00 | 0.00 | 0.00 | 79 | 1013.9 |
| 20260503224404 | 15 | 182 | 0.0 | 0.0 | 0.00 | 0.00 | 0.00 | 79 | 1013.9 |
| 20260503223904 | 15 | 184 | 0.0 | 0.0 | 0.00 | 0.00 | 0.00 | 79 | 1014.0 |
| 20260503223404 | 15 | 184 | 0.0 | 0.0 | 0.00 | 0.00 | 0.00 | 79 | 1013.9 |
| 20260503221904 | 15 | 195 | 1.6 | 8.0 | 0.00 | 0.00 | 0.00 | 79 | 1013.9 |
| 20260503221404 | 16 | 182 | 3.2 | 8.0 | 0.00 | 0.00 | 0.00 | 79 | 1013.9 |
| 20260503220404 | 15 | 179 | 0.0 | 4.8 | 0.00 | 0.00 | 0.00 | 79 | 1013.9 |
| 20260503214904 | 16 | 168 | 0.0 | 0.0 | 0.00 | 0.00 | 0.00 | 78 | 1013.9 |
| 20260503214404 | 16 | 166 | 0.0 | 0.0 | 0.00 | 0.00 | 0.00 | 78 | 1013.9 |
| 20260503213905 | 16 | 161 | 0.0 | 0.0 | 0.00 | 0.00 | 0.00 | 77 | 1013.8 |
| 20260503213405 | 16 | 163 | 0.0 | 3.2 | 0.00 | 0.00 | 0.00 | 77 | 1013.8 |
| 20260503211904 | 16 | 198 | 0.0 | 0.0 | 0.00 | 0.00 | 0.00 | 75 | 1013.8 |
| 20260503211404 | 16 | 195 | 0.0 | 9.7 | 0.00 | 0.00 | 0.00 | 75 | 1013.7 |
| 20260503210904 | 16 | 209 | 0.0 | 11.3 | 0.00 | 0.00 | 0.00 | 75 | 1013.7 |
| 20260503210404 | 16 | 221 | 1.6 | 11.3 | 0.00 | 0.00 | 0.00 | 75 | 1013.7 |
| 20260503204905 | 16 | 251 | 1.6 | 9.7 | 0.00 | 0.00 | 0.00 | 74 | 1013.5 |
| 20260503204404 | 17 | 221 | 1.6 | 8.0 | 0.00 | 0.00 | 0.00 | 74 | 1013.4 |
| 20260503203904 | 17 | 220 | 1.6 | 9.7 | 0.00 | 0.00 | 0.00 | 74 | 1013.4 |
| 20260503203404 | 17 | 254 | 6.4 | 12.9 | 0.00 | 0.00 | 0.00 | 74 | 1013.4 |
| 20260503201904 | 17 | 214 | 4.8 | 14.5 | 0.00 | 0.00 | 0.00 | 73 | 1013.1 |
| 20260503201404 | 17 | 236 | 4.8 | 11.3 | 0.00 | 0.00 | 0.00 | 73 | 1013.0 |
| 20260503200904 | 17 | 237 | 3.2 | 12.9 | 0.00 | 0.00 | 0.00 | 72 | 1013.0 |
| 20260503200404 | 17 | 244 | 4.8 | 16.1 | 0.00 | 0.00 | 0.00 | 72 | 1012.9 |
| 20260503194904 | 17 | 224 | 4.8 | 16.1 | 0.00 | 0.00 | 0.00 | 70 | 1012.7 |
| 20260503194404 | 17 | 240 | 3.2 | 14.5 | 0.00 | 0.00 | 0.00 | 70 | 1012.7 |
| 20260503193904 | 17 | 234 | 4.8 | 12.9 | 0.00 | 0.00 | 0.00 | 69 | 1012.6 |
| 20260503193404 | 17 | 239 | 4.8 | 14.5 | 0.00 | 0.00 | 0.00 | 69 | 1012.5 |
| 20260503191904 | 18 | 227 | 6.4 | 12.9 | 0.00 | 0.00 | 0.00 | 66 | 1012.5 |
| 20260503191404 | 18 | 238 | 4.8 | 12.9 | 0.00 | 0.00 | 0.00 | 66 | 1012.5 |
| 20260503190904 | 18 | 249 | 8.0 | 14.5 | 0.00 | 0.00 | 0.00 | 66 | 1012.5 |
| 20260503190404 | 18 | 232 | 3.2 | 22.5 | 0.00 | 0.00 | 0.00 | 65 | 1012.4 |
| 20260503184904 | 18 | 227 | 3.2 | 11.3 | 0.00 | 0.00 | 0.00 | 62 | 1012.2 |
| 20260503184404 | 18 | 233 | 4.8 | 16.1 | 0.00 | 0.00 | 0.00 | 62 | 1012.1 |
| 20260503183904 | 19 | 245 | 6.4 | 19.3 | 0.00 | 0.00 | 0.00 | 61 | 1012.1 |
| 20260503183404 | 19 | 214 | 8.0 | 19.3 | 0.00 | 0.00 | 0.00 | 60 | 1012.1 |
| 20260503181905 | 20 | 220 | 9.7 | 16.1 | 0.00 | 0.00 | 0.00 | 55 | 1012.1 |
| 20260503181404 | 20 | 240 | 6.4 | 19.3 | 0.00 | 0.00 | 0.00 | 55 | 1012.0 |
| 20260503180904 | 20 | 245 | 8.0 | 19.3 | 0.00 | 0.00 | 0.00 | 58 | 1012.0 |
| 20260503180404 | 20 | 234 | 8.0 | 19.3 | 0.00 | 0.00 | 0.00 | 59 | 1011.9 |
| 20260503174904 | 20 | 224 | 8.0 | 16.1 | 0.00 | 0.00 | 0.00 | 58 | 1011.9 |
| 20260503173904 | 21 | 225 | 8.0 | 22.5 | 0.00 | 0.00 | 0.00 | 58 | 1011.9 |
| 20260503173405 | 21 | 212 | 9.7 | 24.1 | 0.00 | 0.00 | 0.00 | 57 | 1011.8 |
| 20260503171905 | 21 | 205 | 8.0 | 20.9 | 0.00 | 0.00 | 0.00 | 56 | 1011.8 |
| 20260503170904 | 21 | 238 | 8.0 | 20.9 | 0.00 | 0.00 | 0.00 | 55 | 1011.8 |
| 20260503170404 | 21 | 224 | 9.7 | 24.1 | 0.00 | 0.00 | 0.00 | 53 | 1011.8 |
| 20260503150904 | 22 | 254 | 16.1 | 29.0 | 0.00 | 0.00 | 0.00 | 46 | 1012.1 |
| 20260503150404 | 23 | 245 | 6.4 | 25.7 | 0.00 | 0.00 | 0.00 | 47 | 1012.0 |
| 20260503131404 | 22 | 193 | 9.7 | 19.3 | 0.00 | 0.00 | 0.00 | 53 | 1012.9 |
| 20260503130904 | 22 | 234 | 8.0 | 16.1 | 0.00 | 0.00 | 0.00 | 52 | 1012.9 |
| 20260503130404 | 22 | 243 | 9.7 | 20.9 | 0.00 | 0.00 | 0.00 | 54 | 1013.0 |
| 20260503110404 | 21 | 214 | 11.3 | 16.1 | 0.00 | 0.00 | 0.00 | 58 | 1014.1 |
| 20260503090404 | 19 | 187 | 1.6 | 16.1 | 0.00 | 0.00 | 0.00 | 76 | 1014.3 |
| 20260503081404 | 17 | 258 | 1.6 | 4.8 | 0.00 | 0.00 | 0.00 | 81 | 1014.3 |
| 20260503080904 | 17 | 213 | 0.0 | 0.0 | 0.00 | 0.00 | 0.00 | 82 | 1014.3 |
| 20260503071905 | 16 | 263 | 0.0 | 0.0 | 0.00 | 0.00 | 0.00 | 87 | 1014.1 |
| 20260503071404 | 16 | 278 | 0.0 | 0.0 | 0.00 | 0.00 | 0.00 | 87 | 1014.1 |
| 20260503070904 | 16 | 286 | 0.0 | 0.0 | 0.00 | 0.00 | 0.00 | 87 | 1014.2 |
| 20260503070404 | 16 | 286 | 0.0 | 8.0 | 0.00 | 0.00 | 0.00 | 88 | 1014.1 |
| 20260503054904 | 16 | 264 | 1.6 | 4.8 | 0.00 | 0.00 | 0.00 | 88 | 1013.9 |
| 20260503054404 | 16 | 225 | 0.0 | 0.0 | 0.00 | 0.00 | 0.00 | 88 | 1013.8 |
| 20260503053904 | 16 | 221 | 0.0 | 0.0 | 0.00 | 0.00 | 0.00 | 88 | 1013.8 |
| 20260503053404 | 16 | 213 | 0.0 | 0.0 | 0.00 | 0.00 | 0.00 | 88 | 1013.7 |
| 20260503051904 | 16 | 200 | 0.0 | 0.0 | 0.00 | 0.00 | 0.00 | 88 | 1013.6 |
| 20260503051404 | 16 | 200 | 0.0 | 0.0 | 0.00 | 0.00 | 0.00 | 88 | 1013.6 |
| 20260503050404 | 16 | 200 | 0.0 | 0.0 | 0.00 | 0.00 | 0.00 | 88 | 1013.6 |
| 20260503044904 | 16 | 227 | 0.0 | 0.0 | 0.00 | 0.00 | 0.00 | 88 | 1013.6 |
| 20260503044404 | 16 | 227 | 0.0 | 0.0 | 0.00 | 0.00 | 0.00 | 88 | 1013.6 |
| 20260503043904 | 16 | 209 | 1.6 | 9.7 | 0.00 | 0.00 | 0.00 | 88 | 1013.6 |
| 20260503041904 | 16 | 200 | 1.6 | 11.3 | 0.00 | 0.00 | 0.00 | 88 | 1013.7 |
| 20260503041405 | 16 | 215 | 0.0 | 0.0 | 0.00 | 0.00 | 0.00 | 87 | 1013.7 |
| 20260503040904 | 16 | 219 | 0.0 | 0.0 | 0.00 | 0.00 | 0.00 | 87 | 1013.7 |
| 20260503040404 | 16 | 220 | 0.0 | 0.0 | 0.00 | 0.00 | 0.00 | 87 | 1013.7 |
| 20260503034904 | 16 | 220 | 0.0 | 0.0 | 0.00 | 0.00 | 0.00 | 87 | 1013.9 |
| 20260503034404 | 16 | 220 | 0.0 | 0.0 | 0.00 | 0.00 | 0.00 | 87 | 1013.8 |
| 20260503033904 | 16 | 220 | 0.0 | 0.0 | 0.00 | 0.00 | 0.00 | 87 | 1013.8 |
| 20260503033404 | 16 | 220 | 0.0 | 0.0 | 0.00 | 0.00 | 0.00 | 86 | 1013.9 |
| 20260503031904 | 16 | 220 | 0.0 | 0.0 | 0.00 | 0.00 | 0.00 | 86 | 1013.9 |
| 20260503031405 | 16 | 220 | 0.0 | 0.0 | 0.00 | 0.00 | 0.00 | 85 | 1013.9 |
| 20260503030404 | 16 | 223 | 0.0 | 0.0 | 0.00 | 0.00 | 0.00 | 86 | 1014.0 |
| 20260503024904 | 16 | 209 | 0.0 | 0.0 | 0.00 | 0.00 | 0.00 | 86 | 1014.1 |